DW3248 Weather Reports


time (UTC)temp
F
wind
direction
speed
knots
gust
knots
rain 1hr
in
rain 24hr
in
rain mn
in
humidity
%
barometer
mb
20260506203624 53 342 5.2 10.4 0.00 0.00 0.00 73 1012.5
20260506203129 53 355 6.1 15.6 0.00 0.00 0.00 73 1012.5
20260506202624 53 2 6.1 13.0 0.00 0.00 0.00 73 1012.4
20260506202126 53 0 5.2 11.3 0.00 0.00 0.00 72 1012.4
20260506201624 53 353 6.1 13.0 0.00 0.00 0.00 71 1012.4
20260506200624 53 354 7.0 14.8 0.00 0.00 0.00 69 1012.3
20260506195624 54 0 5.2 13.0 0.00 0.00 0.00 69 1012.2
20260506195126 54 360 6.1 13.0 0.00 0.00 0.00 69 1012.2
20260506194127 54 355 7.0 13.0 0.00 0.00 0.00 68 1012.1
20260506193623 54 359 5.2 11.3 0.00 0.00 0.00 68 1012.0
20260506193126 54 354 5.2 14.8 0.00 0.00 0.00 68 1011.9
20260506192623 54 357 7.0 14.8 0.00 0.00 0.00 67 1011.8
20260506191623 54 354 5.2 9.6 0.00 0.00 0.00 68 1011.7
20260506191126 54 7 6.1 12.2 0.00 0.00 0.00 68 1011.6
20260506190623 54 352 7.0 13.9 0.00 0.00 0.00 69 1011.5
20260506190124 54 351 6.1 12.2 0.00 0.00 0.00 69 1011.5
20260506185623 54 3 7.0 13.0 0.00 0.00 0.00 69 1011.4
20260506185126 54 356 7.0 15.6 0.00 0.00 0.00 69 1011.4
20260506184623 54 355 7.0 13.0 0.00 0.00 0.00 69 1011.3
20260506184125 55 350 5.2 12.2 0.00 0.00 0.00 69 1011.3
20260506183623 55 349 7.0 13.0 0.00 0.00 0.00 68 1011.2
20260506183126 55 2 7.0 13.0 0.00 0.00 0.00 68 1011.1
20260506182623 55 349 5.2 16.5 0.00 0.00 0.00 68 1011.1
20260506182125 55 20 6.1 13.0 0.00 0.00 0.00 68 1011.1
20260506181623 55 12 5.2 12.2 0.00 0.00 0.00 68 1011.0
20260506180623 55 354 7.0 14.8 0.00 0.00 0.00 66 1010.9
20260506180125 55 3 6.1 14.8 0.00 0.00 0.00 65 1010.9
20260506175623 55 3 5.2 9.6 0.00 0.00 0.00 65 1010.8
20260506175126 55 2 4.3 10.4 0.00 0.00 0.00 65 1010.8
20260506174623 55 1 2.6 9.6 0.00 0.00 0.00 65 1010.7
20260506174126 55 6 4.3 8.7 0.00 0.00 0.00 65 1010.6
20260506173623 55 353 4.3 7.8 0.00 0.00 0.00 64 1010.5
20260506173125 55 1 4.3 8.7 0.00 0.00 0.00 64 1010.5
20260506171623 55 30 4.3 10.4 0.00 0.00 0.00 64 1010.4
20260506171125 56 40 3.5 7.8 0.00 0.00 0.00 63 1010.4
20260506170623 56 21 4.3 8.7 0.00 0.00 0.00 63 1010.3
20260506165624 56 28 4.3 9.6 0.00 0.00 0.00 61 1010.3
20260506165125 56 32 3.5 9.6 0.00 0.00 0.00 61 1010.2
20260506164624 56 30 4.3 13.0 0.00 0.00 0.00 61 1010.3
20260506163623 57 64 3.5 7.0 0.00 0.00 0.00 60 1010.2
20260506163125 57 26 3.5 5.2 0.00 0.00 0.00 60 1010.1
20260506162623 57 19 3.5 8.7 0.00 0.00 0.00 58 1010.1
20260506162126 57 56 5.2 11.3 0.00 0.00 0.00 57 1010.1
20260506161623 57 31 3.5 7.0 0.00 0.00 0.00 57 1010.1
20260506161125 58 81 3.5 7.0 0.00 0.00 0.00 56 1010.1
20260506160125 57 39 5.2 11.3 0.00 0.00 0.00 55 1010.1
20260506155623 57 39 5.2 12.2 0.00 0.00 0.00 55 1010.1
20260506155127 57 41 6.1 11.3 0.00 0.00 0.00 55 1010.1
20260506154623 57 12 3.5 10.4 0.00 0.00 0.00 56 1010.1
20260506154127 57 20 3.5 8.7 0.00 0.00 0.00 56 1010.2
20260506153126 57 20 4.3 11.3 0.00 0.00 0.00 54 1010.2
20260506152127 58 17 3.5 9.6 0.00 0.00 0.00 54 1010.1
20260506151623 58 38 3.5 7.0 0.00 0.00 0.00 53 1010.0
20260506151126 57 38 4.3 9.6 0.00 0.00 0.00 53 1010.0
20260506150623 57 35 6.1 12.2 0.00 0.00 0.00 52 1010.0
20260506150124 57 35 6.1 13.0 0.00 0.00 0.00 51 1010.0
20260506145623 58 46 6.1 12.2 0.00 0.00 0.00 50 1010.0
20260506145124 58 42 4.3 10.4 0.00 0.00 0.00 50 1009.9
20260506144623 58 16 4.3 10.4 0.00 0.00 0.00 51 1009.9
20260506144126 58 0 4.3 9.6 0.00 0.00 0.00 50 1009.9
20260506143623 58 29 5.2 12.2 0.00 0.00 0.00 51 1009.9
20260506143128 58 22 4.3 9.6 0.00 0.00 0.00 51 1009.9
20260506142623 58 40 4.3 10.4 0.00 0.00 0.00 49 1009.9
20260506142126 58 26 5.2 15.6 0.00 0.00 0.00 49 1009.9
20260506141623 58 27 6.1 11.3 0.00 0.00 0.00 49 1009.9
20260506141126 58 12 6.1 16.5 0.00 0.00 0.00 49 1009.9
20260506140623 59 359 6.1 14.8 0.00 0.00 0.00 47 1009.9
20260506140126 59 36 6.1 13.9 0.00 0.00 0.00 50 1009.9
20260506134127 59 53 5.2 10.4 0.00 0.00 0.00 50 1009.8
20260506133623 59 16 6.1 13.0 0.00 0.00 0.00 51 1009.8
20260506133127 58 11 7.0 13.9 0.00 0.00 0.00 50 1009.8
20260506132624 58 7 5.2 10.4 0.00 0.00 0.00 50 1009.8
20260506131623 58 29 6.1 13.9 0.00 0.00 0.00 50 1009.8
20260506131126 58 44 5.2 13.9 0.00 0.00 0.00 49 1009.8
20260506130124 58 42 6.1 13.0 0.00 0.00 0.00 51 1009.7
20260506125623 58 56 7.0 14.8 0.00 0.00 0.00 49 1009.7
20260506125124 58 43 4.3 11.3 0.00 0.00 0.00 53 1009.7
20260506124623 58 60 7.0 13.9 0.00 0.00 0.00 52 1009.7
20260506124126 58 14 3.5 10.4 0.00 0.00 0.00 53 1009.7
20260506123623 58 1 7.8 16.5 0.00 0.00 0.00 53 1009.6
20260506123125 58 18 5.2 9.6 0.00 0.00 0.00 52 1009.6
20260506122623 58 23 5.2 13.0 0.00 0.00 0.00 52 1009.6
20260506122126 57 26 5.2 12.2 0.00 0.00 0.00 52 1009.6
20260506121623 57 41 5.2 10.4 0.00 0.00 0.00 51 1009.6
20260506120623 57 3 6.1 12.2 0.00 0.00 0.00 54 1009.6
20260506120127 58 25 7.0 15.6 0.00 0.00 0.00 53 1009.5
20260506115126 57 18 5.2 12.2 0.00 0.00 0.00 56 1009.5
20260506114623 57 6 7.8 15.6 0.00 0.00 0.00 57 1009.6
20260506114125 57 1 7.0 14.8 0.00 0.00 0.00 57 1009.6
20260506113623 57 353 7.0 13.0 0.00 0.00 0.00 56 1009.6
20260506113126 57 355 7.8 14.8 0.00 0.00 0.00 57 1009.6
20260506112623 57 348 7.8 14.8 0.00 0.00 0.00 56 1009.5
20260506112126 57 4 7.8 16.5 0.00 0.00 0.00 56 1009.6
20260506111623 58 24 6.1 11.3 0.00 0.00 0.00 56 1009.5
20260506110126 57 356 6.1 15.6 0.00 0.00 0.00 59 1009.5
20260506105625 57 355 9.6 18.2 0.00 0.00 0.00 60 1009.5
20260506104623 56 359 7.8 15.6 0.00 0.00 0.00 68 1009.5
20260506104124 56 1 6.1 13.0 0.00 0.00 0.00 68 1009.5
20260506103623 56 2 8.7 16.5 0.00 0.00 0.00 69 1009.5
20260506102623 56 355 8.7 17.4 0.00 0.00 0.00 71 1009.5
20260506102126 57 357 6.1 12.2 0.00 0.00 0.00 71 1009.4
20260506101623 56 2 7.8 14.8 0.00 0.00 0.00 71 1009.4
20260506101126 56 352 7.8 14.8 0.00 0.00 0.00 71 1009.5
20260506100623 55 357 9.6 15.6 0.00 0.00 0.00 71 1009.4
20260506100126 56 359 7.8 14.8 0.00 0.00 0.00 72 1009.4
20260506095623 55 356 7.8 20.0 0.00 0.00 0.00 73 1009.3
20260506095126 56 353 7.0 18.2 0.00 0.00 0.00 74 1009.4
20260506094623 56 360 8.7 14.8 0.00 0.00 0.00 73 1009.4
20260506094125 56 4 9.6 18.2 0.00 0.00 0.00 73 1009.3
20260506093623 56 3 7.8 15.6 0.00 0.00 0.00 75 1009.3
20260506093127 56 357 8.7 15.6 0.00 0.00 0.00 75 1009.3
20260506092623 56 357 7.8 18.2 0.00 0.00 0.00 75 1009.2
20260506092127 56 4 7.8 17.4 0.00 0.00 0.00 75 1009.2
20260506091623 57 8 7.8 17.4 0.00 0.00 0.00 74 1009.2
20260506091127 56 357 7.0 15.6 0.00 0.00 0.00 75 1009.2
20260506090624 56 1 7.8 18.2 0.00 0.00 0.00 75 1009.2
20260506085623 55 2 7.0 16.5 0.00 0.00 0.00 78 1009.2
20260506084623 54 357 7.8 17.4 0.00 0.00 0.00 78 1009.2
20260506083623 55 356 7.0 13.0 0.00 0.00 0.00 77 1009.1
20260506083125 56 16 5.2 13.0 0.00 0.00 0.00 77 1009.1
20260506082126 55 356 7.0 14.8 0.00 0.00 0.00 76 1009.0
20260506081623 55 8 7.0 11.3 0.00 0.00 0.00 77 1009.0
20260506081126 54 351 7.0 14.8 0.00 0.00 0.00 78 1009.0
20260506080623 54 356 8.7 14.8 0.00 0.00 0.00 78 1009.0
20260506080124 55 12 6.1 15.6 0.00 0.00 0.00 76 1008.9
20260506073126 53 2 5.2 11.3 0.00 0.00 0.00 84 1008.8
20260506072623 53 350 5.2 10.4 0.00 0.00 0.00 84 1008.8
20260506071623 53 344 7.0 13.0 0.00 0.00 0.00 83 1008.8
20260506071125 53 356 5.2 11.3 0.00 0.00 0.00 83 1008.8
20260506070623 53 348 4.3 11.3 0.00 0.00 0.00 83 1008.8
20260506062125 52 1 7.8 16.5 0.00 0.00 0.00 85 1008.6
20260506061623 52 353 6.1 12.2 0.00 0.00 0.00 85 1008.6
20260506061127 52 355 6.1 9.6 0.00 0.00 0.00 85 1008.5
20260506060623 51 351 5.2 13.0 0.00 0.00 0.00 85 1008.5
20260506060125 51 348 7.0 12.2 0.00 0.00 0.00 85 1008.5
20260506050623 51 353 7.0 13.0 0.00 0.00 0.00 85 1008.4
20260506045127 51 352 6.1 13.0 0.00 0.00 0.00 85 1008.5
20260506044126 51 352 7.0 11.3 0.00 0.00 0.00 85 1008.5
20260506043625 51 352 7.0 13.0 0.00 0.00 0.00 85 1008.6
20260506043125 51 352 7.0 12.2 0.00 0.00 0.00 85 1008.6
20260506042625 51 353 6.1 13.0 0.00 0.00 0.00 85 1008.6
20260506042126 51 351 6.1 13.0 0.00 0.00 0.00 85 1008.6
20260506041623 51 350 7.8 13.9 0.00 0.00 0.00 85 1008.6
20260506041127 51 352 7.8 12.2 0.00 0.00 0.00 84 1008.6
20260506040127 51 341 6.1 12.2 0.00 0.00 0.00 84 1008.7
20260506035623 51 348 7.8 12.2 0.00 0.00 0.00 84 1008.7
20260506035128 51 350 8.7 13.9 0.00 0.00 0.00 84 1008.6
20260506034623 51 359 7.0 13.9 0.00 0.00 0.00 84 1008.6
20260506034128 51 352 7.0 13.0 0.00 0.00 0.00 84 1008.7
20260506033623 51 2 7.0 13.0 0.00 0.00 0.00 84 1008.7
20260506033128 51 2 5.2 10.4 0.00 0.00 0.00 84 1008.7
20260506032623 51 352 6.1 14.8 0.00 0.00 0.00 84 1008.7
20260506032126 51 0 7.0 13.0 0.00 0.00 0.00 83 1008.7
20260506031623 51 357 8.7 18.2 0.00 0.00 0.00 83 1008.7
20260506031126 51 346 7.8 13.0 0.00 0.00 0.00 83 1008.8
20260506030623 51 357 7.0 13.0 0.00 0.00 0.00 83 1008.8
20260506025623 51 346 6.1 12.2 0.00 0.00 0.00 82 1008.9
20260506025126 51 356 6.1 13.9 0.00 0.00 0.00 83 1009.0
20260506024124 51 352 5.2 10.4 0.00 0.00 0.00 82 1009.0
20260506023623 51 359 4.3 10.4 0.00 0.00 0.00 82 1009.0
20260506023125 51 355 5.2 10.4 0.00 0.00 0.00 82 1009.0
20260506022623 51 358 5.2 10.4 0.00 0.00 0.00 82 1009.0
20260506022127 51 349 5.2 13.9 0.00 0.00 0.00 83 1009.0
20260506021623 51 354 6.1 13.9 0.00 0.00 0.00 83 1009.0
20260506021126 51 339 4.3 10.4 0.00 0.00 0.00 83 1009.0
20260506020623 51 2 5.2 9.6 0.00 0.00 0.00 83 1009.1
20260506020127 51 352 5.2 9.6 0.00 0.00 0.00 84 1009.0
20260506015125 51 349 6.1 13.0 0.00 0.00 0.00 84 1009.1
20260506014623 51 354 7.0 13.9 0.00 0.00 0.00 84 1009.1
20260506014128 51 352 7.0 12.2 0.00 0.00 0.00 84 1009.1
20260506013623 51 353 6.1 13.0 0.00 0.00 0.00 84 1009.1
20260506012623 51 348 5.2 12.2 0.00 0.00 0.00 84 1009.1
20260506012129 51 341 6.1 12.2 0.00 0.00 0.00 84 1009.1
20260506011623 51 353 6.1 13.9 0.00 0.00 0.00 84 1009.2
20260506011127 51 354 7.8 13.9 0.00 0.00 0.00 84 1009.2
20260506010623 51 348 7.8 14.8 0.00 0.00 0.00 84 1009.3
20260506010126 51 346 6.1 13.0 0.00 0.00 0.00 84 1009.3
20260506005623 51 347 6.1 13.0 0.00 0.00 0.00 84 1009.3
20260506005126 51 348 6.1 13.9 0.00 0.00 0.00 83 1009.4
20260506003623 51 359 5.2 13.0 0.00 0.00 0.00 83 1009.6
20260506003126 51 340 4.3 10.4 0.00 0.00 0.00 82 1009.6
20260506002623 51 350 3.5 9.6 0.00 0.00 0.00 82 1009.7
20260506002129 51 353 4.3 7.8 0.00 0.00 0.00 81 1009.7
20260506001623 51 350 7.0 13.9 0.00 0.00 0.00 81 1009.7
20260506001126 51 345 5.2 12.2 0.00 0.00 0.00 81 1009.8
20260506000623 51 6 6.1 12.2 0.00 0.00 0.00 81 1009.8
20260506000127 51 358 6.1 13.9 0.00 0.00 0.00 81 1009.8
20260505235623 51 2 6.1 13.9 0.00 0.00 0.00 81 1009.8
20260505235127 51 2 7.0 12.2 0.00 0.00 0.00 81 1009.8
20260505234623 51 345 6.1 13.0 0.00 0.00 0.00 81 1009.9
20260505234128 51 356 7.0 14.8 0.00 0.00 0.00 81 1009.9
20260505233623 51 356 6.1 10.4 0.00 0.00 0.00 81 1010.0
20260505233126 51 7 6.1 15.6 0.00 0.00 0.00 81 1010.0
20260505232127 51 359 7.8 14.8 0.00 0.00 0.00 81 1010.1
20260505231623 51 351 7.8 13.9 0.00 0.00 0.00 81 1010.1
20260505231126 51 349 6.1 13.0 0.00 0.00 0.00 81 1010.2
20260505230623 51 3 6.1 12.2 0.00 0.00 0.00 81 1010.2
20260505230127 51 353 6.1 12.2 0.00 0.00 0.00 82 1010.2
20260505225623 51 348 4.3 8.7 0.00 0.00 0.00 83 1010.2
20260505225126 51 356 5.2 12.2 0.00 0.00 0.00 82 1010.2
20260505224623 51 355 7.0 11.3 0.00 0.00 0.00 82 1010.1
20260505224125 51 355 6.1 13.0 0.00 0.00 0.00 82 1010.2
20260505223623 51 349 7.0 13.0 0.00 0.00 0.00 82 1010.2
20260505223125 51 344 6.1 13.9 0.00 0.00 0.00 81 1010.3
20260505222623 51 350 5.2 13.9 0.00 0.00 0.00 81 1010.3
20260505222126 51 340 5.2 13.9 0.00 0.00 0.00 80 1010.3
20260505221623 51 349 7.0 13.0 0.00 0.00 0.00 79 1010.4
20260505221127 51 354 6.1 13.0 0.00 0.00 0.00 78 1010.5
20260505220623 51 344 7.8 18.2 0.00 0.00 0.00 78 1010.4
20260505220127 51 347 7.0 15.6 0.00 0.00 0.00 77 1010.5
20260505215623 51 345 6.1 11.3 0.00 0.00 0.00 77 1010.5
20260505215126 51 359 4.3 11.3 0.00 0.00 0.00 77 1010.5
20260505214623 51 356 6.1 13.0 0.00 0.00 0.00 76 1010.5
20260505214126 51 354 7.0 11.3 0.00 0.00 0.00 76 1010.6
20260505213624 52 2 6.1 10.4 0.00 0.00 0.00 76 1010.6
20260505213125 52 4 6.1 13.0 0.00 0.00 0.00 75 1010.7
20260505212623 52 351 6.1 14.8 0.00 0.00 0.00 75 1010.7
20260505212127 52 2 5.2 13.0 0.00 0.00 0.00 75 1010.7
20260505211623 52 14 7.0 16.5 0.00 0.00 0.00 75 1010.7
20260505211126 52 8 6.1 11.3 0.00 0.00 0.00 75 1010.7
20260505210623 52 9 6.1 12.2 0.00 0.00 0.00 75 1010.7
20260505205126 52 7 7.0 14.8 0.00 0.00 0.00 74 1010.8
20260505204624 52 7 8.7 16.5 0.00 0.00 0.00 73 1010.8
20260505204127 52 3 6.1 12.2 0.00 0.00 0.00 73 1010.8